Location: Le Hiès Ruisseau
(43.3000°N, 0.4500°W)
Time: 13:20:22
(UTC+00:00)

NOSS 2-1 (E) - Pass Details

Date: 28 January 2023
Orbit: 400 x 1778 km, 63.3° (Epoch: 09 March)

Event Time Altitude Azimuth Distance (km) Brightness Sun altitude
Rises 18:04:03 0° 329° (NNW) 2,736 7.1 -10.4°
Reaches altitude 10° 18:06:04 10° 337° (NNW) 1,975 6.2 -10.8°
Maximum altitude 18:10:19 43° 50° (NE) 1,063 4.3 -11.5°
Drops below altitude 10° 18:16:12 10° 121° (ESE) 2,745 6.4 -12.6°
Sets 18:19:27 0° 127° (SE) 3,947 7.3 -13.1°
